"Pseudo-MPEC" for S509475

Created 2016 Jun 20 2:06:03 UT using Find_Orb

Astrometry:
     S509475 tC2016 04 25.95174 15 15 37.16 -26 42 54.4          13.2 R      Y00
     S509475 tC2016 04 25.95281 15 16 20.15 -26 44 44.4          13.4 R      Y00
     S509475 tC2016 04 25.95408 15 17 11.17 -26 46 54.6          13.5 R      Y00
     S509475  C2016 04 25.99312 15 42 18.36 -27 40 40.1          13.0 R      Y00
     S509475  C2016 04 25.99340 15 42 28.80 -27 40 58.2          12.8 R      Y00
     S509475 tC2016 04 25.99367 15 42 38.91 -27 41 15.6          13.9 R      Y00
     S509475 tC2016 04 25.99394 15 42 49.27 -27 41 33.4          13.1 R      Y00
     S509475 tC2016 04 25.99420 15 42 58.93 -27 41 49.9          13.3 R      Y00
     S509475  C2016 04 25.99445 15 43 08.10 -27 42 05.7          12.9 R      Y00
     S509475 tC2016 04 25.99472 15 43 18.06 -27 42 22.7          14.0 R      Y00
     S509475  C2016 04 25.99500 15 43 28.32 -27 42 39.7          12.5 R      Y00
     S509475 tC2016 04 25.99564 15 43 52.28 -27 43 20.1          13.5 R      Y00
     S509475 tC2016 04 25.99590 15 44 01.52 -27 43 36.2          13.3 R      Y00
     S509475  C2016 04 25.99614 15 44 10.70 -27 43 51.7          12.6 R      Y00
     S509475 tC2016 04 25.99644 15 44 21.76 -27 44 10.0          13.8 R      Y00
     S509475 tC2016 04 25.99674 15 44 32.74 -27 44 28.5          13.2 R      Y00
     S509475  C2016 04 25.99698 15 44 41.74 -27 44 42.3          13.1 R      Y00
     S509475 tC2016 04 25.99753 15 45 01.77 -27 45 16.6          13.3 R      Y00

Station data:
(Y00) SONEAR Observatory, Oliveira (S20.71513 W44.78496)  Brazil.   Observers
    C. Jacques, E. Pimentel, J. Barros.  Measurer C. Jacques.  0.28-m f/2.2
    astrograph + CCD.

Orbital elements:  S509475
   Perigee 2016 Apr 25.622078 +/- 0.00897 TT = 14:55:47 (JD 2457504.122078)
Epoch 2016 Apr 26.0 TT = JDT 2457504.5                        Find_Orb
M 138.250618 +/- 2.8                (J2000 equatorial)
n 365.817978104 +/- 12              Peri.  100.952641 +/- 1.3
a 41792.03087 +/- 914               Node   326.157400 +/- 0.16
e   0.52137686 +/- 0.0125           Incl.   28.620019 +/- 0.06
P1417.07m/0.984d           H 29.7   G  0.15   U 14.4  
q 20002.63289 +/- 922    Q 63581.42886 +/- 906
From 18 observations 2016 Apr. 25 (65.9 min); mean residual 1".350
Residuals in arcseconds: 
160425 Y00 1.22+ .511-    160425 Y00 3.00+ .424-    160425 Y00 2.75- .221+    
160425 Y00 .470- .355+    160425 Y00 3.06+ .355-    160425 Y00 1.19+ .394-    
160425 Y00 .847- .188+    160425 Y00 1.59+ .280-    160425 Y00 .686+ .157-    
160425 Y00 2.67- .233+    160425 Y00 .811+ .196-    160425 Y00 .806- .199-    
160425 Y00 2.32- .175+    160425 Y00 .842- .454+    160425 Y00 .923+ .711+    
160425 Y00 1.35- .108+    160425 Y00 2.39+ .139+    160425 Y00 2.83- .067-    

Ephemerides (geocentric):
Date (UTC) HH   RA              Dec         delta   r     elong  mag " sig PA
---- -- -- --  ------------   ------------  ------ ------ -----  --- ---- ---
2016 04 26 00  15 23 00.116   -28 30 42.93   61097 1.0067 158.2 13.8   37  82
2016 04 26 01  15 50 00.338   -28 36 45.25   62590 1.0067 153.2 14.0   21 123
2016 04 26 02  16 15 59.860   -28 23 36.01   63406 1.0067 148.2 14.2  147  93
2016 04 26 03  16 41 25.202   -27 52 40.74   63552 1.0067 143.1 14.3  354  87
2016 04 26 04  17 06 40.954   -27 04 08.50   63032 1.0066 137.8 14.4  655  83
2016 04 26 05  17 32 12.123   -25 56 55.57   61839 1.0066 132.4 14.6 1071  79
2016 04 26 06  17 58 26.691   -24 28 35.68   59960 1.0066 126.6 14.6 1644  76
2016 04 26 07  18 25 59.055   -22 34 53.87   57372 1.0066 120.3 14.7 2440  73
2016 04 26 08  18 55 35.538   -20 08 54.02   54048 1.0065 113.2 14.8 3573  70
2016 04 26 09  19 28 24.470   -16 59 18.82   49950 1.0065 105.1 14.9 5251  67
2016 04 26 10  20 06 16.900   -12 47 15.86   45046 1.0064  95.4 15.0 7881  65
2016 04 26 11  20 52 34.941   -06 59 58.71   39322 1.0064  82.9 15.3 205'  62
2016 04 26 12  21 54 22.797   +01 20 04.90   32868 1.0063  65.9 15.8 342'  62
2016 04 26 13  23 29 18.698   +13 32 13.19   26152 1.0063  40.6 17?? 610'  65
2016 04 26 14  02 22 08.544   +27 03 25.54   20914 1.0063  13.4 24?? 990'  80
2016 04 26 15  06 27 09.212   +22 29 42.28   20721 1.0064  59.7 15?? 942' 108
2016 04 26 16  09 11 36.293   +04 28 38.52   25759 1.0065 102.1 13.6 590' 118
2016 04 26 17  10 47 44.344   -08 26 34.57   32457 1.0066 128.4 13.3 367' 117
2016 04 26 18  11 53 50.680   -16 15 38.29   38948 1.0067 145.3 13.2 249' 114
2016 04 26 19  12 44 48.036   -21 06 58.48   44721 1.0068 156.7 13.2 184' 110
2016 04 26 20  13 26 54.033   -24 13 59.95   49676 1.0068 164.1 13.1 8712 106
2016 04 26 21  14 03 18.415   -26 15 16.94   53822 1.0069 167.1 13.2 7240 102
2016 04 26 22  14 35 50.160   -27 31 59.37   57192 1.0069 165.7 13.4 6306  98
2016 04 26 23  15 05 38.613   -28 16 19.27   59823 1.0069 161.8 13.6 5731  95
2016 04 27 00  15 33 31.801   -28 35 31.66   61745 1.0069 157.2 13.8 5422  91
2016 04 27 01  16 00 05.664   -28 33 53.99   62978 1.0069 152.2 14.0 5328  88
2016 04 27 02  16 25 49.254   -28 13 47.24   63539 1.0069 147.2 14.2 5428  85
2016 04 27 03  16 51 08.081   -27 36 06.54   63432 1.0069 142.0 14.3 5724  82
2016 04 27 04  17 16 26.625   -26 40 33.48   62657 1.0069 136.7 14.5 6239  79
2016 04 27 05  17 42 10.702   -25 25 34.76   61204 1.0069 131.1 14.6 7022  77